CW5398 Weather Reports


Display with metric or nautical units.
time (UTC)temp
F
wind
direction
speed
MPH
gust
MPH
rain 1hr
in
rain 24hr
in
rain mn
in
humidity
%
barometer
mb
20260503220016 78 248 3.0 7.0 0.00 0.00 0.00 44 1012.0
20260503215016 78 248 3.0 8.0 0.00 0.00 0.00 46 1012.3
20260503214036 79 225 2.0 8.0 0.00 0.00 0.00 47 1012.3
20260503213016 80 248 2.0 8.0 0.00 0.00 0.00 44 1012.3
20260503212016 79 225 1.0 4.0 0.00 0.00 0.00 44 1012.4
20260503211016 79 225 1.0 6.0 0.00 0.00 0.00 46 1012.4
20260503210016 79 225 1.0 5.0 0.00 0.00 0.00 49 1012.4
20260503205016 78 203 1.0 6.0 0.00 0.00 0.00 49 1012.5
20260503204016 77 203 2.0 6.0 0.00 0.00 0.00 50 1012.6
20260503203036 75 203 3.0 7.0 0.00 0.00 0.00 50 1012.6
20260503202036 75 203 1.0 7.0 0.00 0.00 0.00 50 1012.7
20260503201016 75 203 2.0 7.0 0.00 0.00 0.00 53 1012.9
20260503200016 75 225 2.0 11.0 0.00 0.00 0.00 52 1012.9
20260503195015 75 225 1.0 6.0 0.00 0.00 0.00 50 1013.1
20260503194016 74 225 1.0 6.0 0.00 0.00 0.00 54 1013.3
20260503193016 73 203 1.0 5.0 0.00 0.00 0.00 56 1013.3
20260503192016 73 203 2.0 7.0 0.00 0.00 0.00 60 1013.3
20260503191035 73 203 1.0 5.0 0.00 0.00 0.00 57 1013.5
20260503190031 73 225 2.0 8.0 0.00 0.00 0.00 56 1013.5
20260503185016 72 225 1.0 6.0 0.00 0.00 0.00 58 1013.8
20260503184015 72 225 1.0 5.0 0.00 0.00 0.00 60 1013.9
20260503183035 72 225 1.0 6.0 0.00 0.00 0.00 58 1013.9
20260503182016 72 225 3.0 6.0 0.00 0.00 0.00 59 1014.0
20260503181015 72 225 1.0 6.0 0.00 0.00 0.00 59 1014.2
20260503180016 71 225 1.0 5.0 0.00 0.00 0.00 60 1014.2
20260503175015 70 225 1.0 5.0 0.00 0.00 0.00 60 1014.4
20260503174016 68 225 1.0 5.0 0.00 0.00 0.00 66 1014.4
20260503173015 68 293 2.0 6.0 0.00 0.00 0.00 64 1014.4
20260503172015 68 293 0.0 1.0 0.00 0.00 0.00 63 1014.4
20260503171036 69 293 0.0 3.0 0.00 0.00 0.00 67 1014.4
20260503131017 51 286 0.0 0.0 0.00 0.00 0.00 93 1014.4
20260503081016 55 293 0.0 1.0 0.00 0.00 0.00 88 1014.3
20260503072016 56 293 0.0 4.0 0.00 0.00 0.00 88 1014.1
20260503071016 56 286 0.0 0.0 0.00 0.00 0.00 87 1014.1
20260503055016 57 293 0.0 1.0 0.00 0.00 0.00 87 1014.1
20260503054016 57 293 0.0 2.0 0.00 0.00 0.00 87 1014.2
20260503053015 57 286 0.0 0.0 0.00 0.00 0.00 86 1014.2
20260503052015 57 286 0.0 0.0 0.00 0.00 0.00 84 1014.1
20260503051015 58 286 0.0 0.0 0.00 0.00 0.00 84 1014.2
20260503050016 58 293 0.0 1.0 0.00 0.00 0.00 84 1014.1
20260503045015 58 293 1.0 4.0 0.00 0.00 0.00 84 1014.0
20260503044016 58 293 1.0 3.0 0.00 0.00 0.00 84 1014.0
20260503043015 59 293 1.0 2.0 0.00 0.00 0.00 84 1013.9
20260503042015 59 286 0.0 0.0 0.00 0.00 0.00 84 1013.8
20260503041015 60 286 0.0 0.0 0.00 0.00 0.00 83 1013.8
20260503040016 61 286 0.0 0.0 0.00 0.00 0.00 84 1013.8
20260503035015 62 286 0.0 0.0 0.00 0.00 0.00 84 1013.7
20260503034016 63 286 0.0 0.0 0.00 0.00 0.00 81 1013.4
20260503033015 64 286 0.0 0.0 0.00 0.00 0.00 78 1013.4
20260503032037 65 286 0.0 0.0 0.00 0.00 0.00 76 1013.3
20260503031017 66 286 0.0 0.0 0.00 0.00 0.00 72 1013.3
20260503030017 68 286 0.0 0.0 0.00 0.00 0.00 68 1013.3
20260503025017 69 286 0.0 0.0 0.00 0.00 0.00 66 1013.3
20260503024017 71 293 0.0 1.0 0.00 0.00 0.00 64 1013.3
20260503023017 72 286 0.0 0.0 0.00 0.00 0.00 56 1013.3
20260503022017 72 293 0.0 3.0 0.00 0.00 0.00 54 1013.4
20260503021017 72 293 1.0 5.0 0.00 0.00 0.00 54 1013.5
20260503020057 73 293 1.0 5.0 0.00 0.00 0.00 54 1013.5
20260503015015 73 293 0.0 4.0 0.00 0.00 0.00 53 1013.5
20260503014017 73 293 2.0 6.0 0.00 0.00 0.00 51 1013.8
20260503013017 72 293 1.0 5.0 0.00 0.00 0.00 52 1013.8
20260503012017 73 293 1.0 4.0 0.00 0.00 0.00 54 1013.8
20260503011017 73 293 0.0 5.0 0.00 0.00 0.00 55 1013.9
20260503010017 73 293 1.0 6.0 0.00 0.00 0.00 55 1013.9
20260503005017 73 293 1.0 6.0 0.00 0.00 0.00 55 1013.9
20260503004017 73 293 0.0 4.0 0.00 0.00 0.00 57 1013.9
20260503003017 73 293 0.0 3.0 0.00 0.00 0.00 59 1013.9
20260503002016 74 293 0.0 2.0 0.00 0.00 0.00 55 1013.9
20260503001037 74 293 1.0 4.0 0.00 0.00 0.00 49 1013.9
20260503000016 73 293 0.0 3.0 0.00 0.00 0.00 54 1013.9
20260502235017 73 293 1.0 5.0 0.00 0.00 0.00 57 1014.2
20260502234017 73 293 0.0 1.0 0.00 0.00 0.00 56 1014.4
20260502233017 73 293 1.0 6.0 0.00 0.00 0.00 56 1014.4
20260502232037 72 293 1.0 5.0 0.00 0.00 0.00 55 1014.6
20260502231016 72 293 1.0 6.0 0.00 0.00 0.00 58 1014.9
20260502230016 72 293 1.0 6.0 0.00 0.00 0.00 55 1014.9
20260502225037 72 293 2.0 7.0 0.00 0.00 0.00 57 1015.1
20260502224016 72 293 0.0 3.0 0.00 0.00 0.00 58 1015.5
20260502223016 72 293 3.0 8.0 0.00 0.00 0.00 55 1015.5
20260502222037 73 270 1.0 6.0 0.00 0.00 0.00 58 1015.8
20260502221017 73 270 2.0 11.0 0.00 0.00 0.00 59 1015.8